Powrót do katalogu

KUIPER-00236

AktywnyŁącznośćLEO
NORAD 68582·PAYLOAD·🇺🇸 United States

Wystrzelony Apr 4, 2026 z Cape Canaveral Space Force Station

Loading…

Następne Przeloty (najbliższe 24 godziny)

TLE

ŚwieżeSource: CelesTrak SupGP

Epoka: Sep 14, 2026, 20:45 UTC

1 68582C 26072K   26257.86504630 -.00725190  00000+0 -95159-1 0  2572
2 68582  51.9016 108.9413 0000999  85.3259 215.1491 14.80555801    19

Śledź KUIPER-00236 w czasie rzeczywistym z AllMySat

Download on the App Store